Time,TemperatureF,DewpointF,PressureIn,WindDirection,WindDirectionDegrees,WindSpeedMPH,WindSpeedGustMPH,Humidity,HourlyPrecipIn,Conditions,Clouds,dailyrainin,SoftwareType,DateUTC
2013-09-29 00:02:00,69.6,68.7,29.96,NNW,332,7.0,18.0,97,0.19,,,0.00,Wunderground v.1.15,2013-09-29 05:02:00,
2013-09-29 00:08:00,68.7,67.8,29.96,NNE,14,7.0,18.0,97,0.12,,,0.01,Wunderground v.1.15,2013-09-29 05:08:00,
2013-09-29 00:14:00,68.4,67.5,29.96,NNW,345,6.0,18.0,97,0.29,,,0.05,Wunderground v.1.15,2013-09-29 05:14:00,
2013-09-29 00:20:00,68.0,67.1,29.96,NNW,345,5.0,18.0,97,0.14,,,0.06,Wunderground v.1.15,2013-09-29 05:20:00,
2013-09-29 00:26:00,67.7,67.1,29.96,North,6,5.0,18.0,98,0.08,,,0.06,Wunderground v.1.15,2013-09-29 05:26:00,
2013-09-29 00:32:00,67.5,66.9,29.97,NNW,328,4.0,18.0,98,0.24,,,0.09,Wunderground v.1.15,2013-09-29 05:32:00,
2013-09-29 00:38:00,67.3,66.7,29.97,NNW,342,3.0,18.0,98,0.14,,,0.10,Wunderground v.1.15,2013-09-29 05:38:00,
2013-09-29 00:44:00,67.1,66.5,29.97,NW,316,4.0,18.0,98,0.07,,,0.10,Wunderground v.1.15,2013-09-29 05:44:00,
2013-09-29 00:50:00,67.0,66.4,29.97,NNW,341,4.0,18.0,98,0.04,,,0.10,Wunderground v.1.15,2013-09-29 05:50:00,
2013-09-29 00:56:00,66.8,66.2,29.96,NNW,328,4.0,18.0,98,0.00,,,0.10,Wunderground v.1.15,2013-09-29 05:56:00,
2013-09-29 01:02:00,66.7,66.1,29.96,NNW,343,7.0,18.0,98,0.00,,,0.11,Wunderground v.1.15,2013-09-29 06:02:00,
2013-09-29 01:08:00,66.7,66.1,29.96,NNW,334,7.0,18.0,98,0.00,,,0.11,Wunderground v.1.15,2013-09-29 06:08:00,
2013-09-29 01:14:00,66.6,66.0,29.96,NNW,344,6.0,18.0,98,0.00,,,0.11,Wunderground v.1.15,2013-09-29 06:14:00,
2013-09-29 01:20:00,66.5,65.9,29.96,NW,319,7.0,7.0,98,0.00,,,0.11,Wunderground v.1.15,2013-09-29 06:20:00,
2013-09-29 01:26:00,66.4,65.8,29.96,North,4,7.0,18.0,98,0.00,,,0.11,Wunderground v.1.15,2013-09-29 06:26:00,
2013-09-29 01:32:00,66.3,65.7,29.97,North,11,6.0,18.0,98,0.00,,,0.11,Wunderground v.1.15,2013-09-29 06:32:00,
2013-09-29 01:38:00,66.1,65.5,29.97,NNE,12,6.0,18.0,98,0.00,,,0.11,Wunderground v.1.15,2013-09-29 06:38:00,
2013-09-29 01:44:00,66.0,65.4,29.97,North,1,7.0,9.0,98,0.00,,,0.11,Wunderground v.1.15,2013-09-29 06:44:00,
2013-09-29 01:50:00,65.8,65.2,29.97,NNW,330,8.0,8.0,98,0.00,,,0.11,Wunderground v.1.15,2013-09-29 06:50:00,
2013-09-29 01:56:00,65.8,65.2,29.97,North,6,7.0,18.0,98,0.00,,,0.11,Wunderground v.1.15,2013-09-29 06:56:00,
2013-09-29 02:02:00,65.8,65.2,29.97,NNW,345,6.0,18.0,98,0.00,,,0.11,Wunderground v.1.15,2013-09-29 07:02:00,
2013-09-29 02:08:00,65.7,65.1,29.98,North,8,6.0,18.0,98,0.00,,,0.11,Wunderground v.1.15,2013-09-29 07:08:00,
2013-09-29 02:14:00,65.7,65.4,29.98,North,349,5.0,18.0,99,0.00,,,0.11,Wunderground v.1.15,2013-09-29 07:14:00,
2013-09-29 02:20:00,65.6,65.3,29.97,North,9,5.0,18.0,99,0.00,,,0.11,Wunderground v.1.15,2013-09-29 07:20:00,
2013-09-29 02:26:00,65.5,64.9,29.97,North,9,7.0,18.0,98,0.00,,,0.11,Wunderground v.1.15,2013-09-29 07:26:00,
2013-09-29 02:32:00,65.5,65.2,29.97,North,358,7.0,18.0,99,0.00,,,0.11,Wunderground v.1.15,2013-09-29 07:32:00,
2013-09-29 02:38:00,65.5,65.2,29.97,NNE,30,6.0,18.0,99,0.00,,,0.11,Wunderground v.1.15,2013-09-29 07:38:00,
2013-09-29 02:44:00,65.4,65.1,29.97,North,4,6.0,18.0,99,0.00,,,0.11,Wunderground v.1.15,2013-09-29 07:44:00,
2013-09-29 02:50:00,65.4,65.1,29.97,North,354,6.0,18.0,99,0.00,,,0.11,Wunderground v.1.15,2013-09-29 07:50:00,
2013-09-29 02:56:00,65.4,65.1,29.97,NNW,335,5.0,18.0,99,0.00,,,0.11,Wunderground v.1.15,2013-09-29 07:56:00,
2013-09-29 03:02:00,65.4,65.1,29.97,North,360,5.0,18.0,99,0.00,,,0.11,Wunderground v.1.15,2013-09-29 08:02:00,
2013-09-29 03:08:00,65.4,65.1,29.96,North,1,6.0,18.0,99,0.00,,,0.11,Wunderground v.1.15,2013-09-29 08:08:00,
2013-09-29 03:14:00,65.3,65.0,29.96,NNE,18,7.0,18.0,99,0.00,,,0.11,Wunderground v.1.15,2013-09-29 08:14:00,
2013-09-29 03:20:00,65.3,65.0,29.97,NNW,345,7.0,7.0,99,0.00,,,0.11,Wunderground v.1.15,2013-09-29 08:20:00,
2013-09-29 03:26:00,65.2,64.9,29.97,NW,305,6.0,18.0,99,0.00,,,0.11,Wunderground v.1.15,2013-09-29 08:26:00,
2013-09-29 03:32:00,65.0,64.7,29.97,NW,317,5.0,18.0,99,0.00,,,0.11,Wunderground v.1.15,2013-09-29 08:32:00,
2013-09-29 03:38:00,64.9,64.6,29.97,NNW,345,5.0,18.0,99,0.00,,,0.12,Wunderground v.1.15,2013-09-29 08:38:00,
2013-09-29 03:44:00,64.8,64.5,29.97,NNW,347,5.0,18.0,99,0.00,,,0.12,Wunderground v.1.15,2013-09-29 08:44:00,
2013-09-29 03:50:00,64.6,64.3,29.97,NE,37,6.0,6.0,99,0.00,,,0.12,Wunderground v.1.15,2013-09-29 08:50:00,
2013-09-29 03:56:00,64.4,64.1,29.97,NNE,16,7.0,18.0,99,0.00,,,0.12,Wunderground v.1.15,2013-09-29 08:56:00,
2013-09-29 04:02:00,64.4,64.1,29.97,North,356,6.0,18.0,99,0.00,,,0.12,Wunderground v.1.15,2013-09-29 09:02:00,
2013-09-29 04:08:00,64.4,64.1,29.96,NNW,340,6.0,18.0,99,0.00,,,0.12,Wunderground v.1.15,2013-09-29 09:08:00,
2013-09-29 04:14:00,64.3,64.0,29.97,NNW,345,7.0,18.0,99,0.00,,,0.12,Wunderground v.1.15,2013-09-29 09:14:00,
2013-09-29 04:20:00,64.5,64.2,29.97,NW,326,6.0,6.0,99,0.00,,,0.12,Wunderground v.1.15,2013-09-29 09:20:00,
2013-09-29 04:26:00,64.3,64.0,29.97,North,350,6.0,18.0,99,0.00,,,0.12,Wunderground v.1.15,2013-09-29 09:26:00,
2013-09-29 04:32:00,64.0,63.7,29.97,North,359,6.0,18.0,99,0.00,,,0.12,Wunderground v.1.15,2013-09-29 09:32:00,
2013-09-29 04:38:00,63.8,63.5,29.97,NNE,13,5.0,18.0,99,0.00,,,0.12,Wunderground v.1.15,2013-09-29 09:38:00,
2013-09-29 04:44:00,63.5,63.2,29.97,NNW,330,5.0,18.0,99,0.00,,,0.12,Wunderground v.1.15,2013-09-29 09:44:00,
2013-09-29 04:50:00,63.3,63.0,29.98,NNW,331,5.0,18.0,99,0.00,,,0.12,Wunderground v.1.15,2013-09-29 09:50:00,
2013-09-29 04:56:00,63.1,62.8,29.98,NNW,338,5.0,18.0,99,0.00,,,0.12,Wunderground v.1.15,2013-09-29 09:56:00,
2013-09-29 05:02:00,63.0,62.7,29.98,NNW,339,5.0,18.0,99,0.00,,,0.12,Wunderground v.1.15,2013-09-29 10:02:00,
2013-09-29 05:08:00,62.9,62.6,29.98,North,352,6.0,18.0,99,0.00,,,0.12,Wunderground v.1.15,2013-09-29 10:08:00,
2013-09-29 05:14:00,62.6,62.3,29.98,NNW,338,6.0,8.0,99,0.00,,,0.12,Wunderground v.1.15,2013-09-29 10:14:00,
2013-09-29 05:20:00,62.5,62.2,29.98,North,359,6.0,18.0,99,0.00,,,0.12,Wunderground v.1.15,2013-09-29 10:20:00,
2013-09-29 05:26:00,62.4,62.1,29.98,North,349,6.0,18.0,99,0.00,,,0.12,Wunderground v.1.15,2013-09-29 10:26:00,
2013-09-29 05:32:00,62.4,62.1,29.98,NNW,334,6.0,18.0,99,0.00,,,0.12,Wunderground v.1.15,2013-09-29 10:32:00,
2013-09-29 05:38:00,62.2,61.9,29.98,NNW,330,5.0,18.0,99,0.00,,,0.12,Wunderground v.1.15,2013-09-29 10:38:00,
2013-09-29 05:44:00,62.0,61.7,29.98,North,6,6.0,18.0,99,0.00,,,0.12,Wunderground v.1.15,2013-09-29 10:44:00,
2013-09-29 05:50:00,62.0,61.7,29.99,NW,322,6.0,18.0,99,0.00,,,0.12,Wunderground v.1.15,2013-09-29 10:50:00,
2013-09-29 05:56:00,61.8,61.5,29.99,NNW,329,7.0,18.0,99,0.00,,,0.12,Wunderground v.1.15,2013-09-29 10:56:00,
2013-09-29 06:02:00,61.8,61.5,29.99,North,351,7.0,9.0,99,0.00,,,0.12,Wunderground v.1.15,2013-09-29 11:02:00,
2013-09-29 06:08:00,61.8,61.5,29.99,North,350,6.0,9.0,99,0.00,,,0.12,Wunderground v.1.15,2013-09-29 11:08:00,
2013-09-29 06:14:00,61.8,61.5,29.99,NNW,330,7.0,9.0,99,0.00,,,0.12,Wunderground v.1.15,2013-09-29 11:14:00,
2013-09-29 06:20:00,61.8,61.5,29.99,North,5,7.0,7.0,99,0.00,,,0.12,Wunderground v.1.15,2013-09-29 11:20:00,
2013-09-29 06:26:00,61.8,61.5,29.99,NNW,339,7.0,11.0,99,0.00,,,0.12,Wunderground v.1.15,2013-09-29 11:26:00,
2013-09-29 06:32:00,61.7,61.4,29.99,NNE,24,8.0,8.0,99,0.00,,,0.12,Wunderground v.1.15,2013-09-29 11:32:00,
2013-09-29 06:38:00,61.7,61.4,29.99,North,8,8.0,8.0,99,0.00,,,0.12,Wunderground v.1.15,2013-09-29 11:38:00,
2013-09-29 06:44:00,61.6,61.3,29.99,NNW,343,9.0,11.0,99,0.00,,,0.12,Wunderground v.1.15,2013-09-29 11:44:00,
2013-09-29 06:50:00,61.5,61.2,30.00,North,354,9.0,9.0,99,0.00,,,0.12,Wunderground v.1.15,2013-09-29 11:50:00,
2013-09-29 06:56:00,61.4,61.1,30.00,North,8,9.0,14.0,99,0.00,,,0.12,Wunderground v.1.15,2013-09-29 11:56:00,
2013-09-29 07:02:00,61.4,61.1,30.00,NNW,330,8.0,14.0,99,0.00,,,0.12,Wunderground v.1.15,2013-09-29 12:02:00,
2013-09-29 07:08:00,61.4,61.1,30.00,NNW,340,7.0,14.0,99,0.00,,,0.12,Wunderground v.1.15,2013-09-29 12:08:00,
2013-09-29 07:14:00,61.5,61.2,30.00,North,5,7.0,14.0,99,0.00,,,0.12,Wunderground v.1.15,2013-09-29 12:14:00,
2013-09-29 07:20:00,61.5,61.2,30.00,NW,308,6.0,6.0,99,0.00,,,0.12,Wunderground v.1.15,2013-09-29 12:20:00,
2013-09-29 07:26:00,61.4,61.1,30.00,NNW,343,5.0,14.0,99,0.00,,,0.12,Wunderground v.1.15,2013-09-29 12:26:00,
2013-09-29 07:32:00,61.3,61.0,30.00,NW,320,5.0,14.0,99,0.00,,,0.12,Wunderground v.1.15,2013-09-29 12:32:00,
2013-09-29 07:38:00,61.2,60.9,30.00,NNW,334,6.0,14.0,99,0.00,,,0.12,Wunderground v.1.15,2013-09-29 12:38:00,
2013-09-29 07:44:00,61.2,60.9,30.00,NNW,328,6.0,14.0,99,0.00,,,0.12,Wunderground v.1.15,2013-09-29 12:44:00,
2013-09-29 07:50:00,61.2,60.9,30.01,WNW,295,6.0,6.0,99,0.00,,,0.12,Wunderground v.1.15,2013-09-29 12:50:00,
2013-09-29 07:56:00,61.0,60.7,30.00,NW,318,5.0,14.0,99,0.00,,,0.12,Wunderground v.1.15,2013-09-29 12:56:00,
2013-09-29 08:02:00,61.0,60.7,30.01,North,1,5.0,14.0,99,0.00,,,0.12,Wunderground v.1.15,2013-09-29 13:02:00,
2013-09-29 08:08:00,61.0,60.7,30.01,NNW,337,4.0,14.0,99,0.00,,,0.12,Wunderground v.1.15,2013-09-29 13:08:00,
2013-09-29 08:14:00,61.0,60.7,30.01,NNW,333,4.0,14.0,99,0.00,,,0.12,Wunderground v.1.15,2013-09-29 13:14:00,
2013-09-29 08:20:00,61.0,60.7,30.01,NW,316,5.0,14.0,99,0.00,,,0.12,Wunderground v.1.15,2013-09-29 13:20:00,
2013-09-29 08:26:00,61.1,60.8,30.01,NNW,330,4.0,14.0,99,0.00,,,0.12,Wunderground v.1.15,2013-09-29 13:26:00,
2013-09-29 08:32:00,61.1,60.8,30.01,North,352,4.0,14.0,99,0.00,,,0.12,Wunderground v.1.15,2013-09-29 13:32:00,
2013-09-29 08:38:00,61.1,60.8,30.01,NNW,334,5.0,14.0,99,0.00,,,0.12,Wunderground v.1.15,2013-09-29 13:38:00,
2013-09-29 08:44:00,61.1,60.8,30.01,WNW,296,5.0,14.0,99,0.00,,,0.12,Wunderground v.1.15,2013-09-29 13:44:00,
2013-09-29 08:50:00,61.1,60.8,30.01,North,5,6.0,14.0,99,0.00,,,0.12,Wunderground v.1.15,2013-09-29 13:50:00,
2013-09-29 08:56:00,61.1,60.8,30.01,NNE,12,7.0,14.0,99,0.00,,,0.12,Wunderground v.1.15,2013-09-29 13:56:00,
2013-09-29 09:02:00,61.0,60.7,30.01,NW,307,7.0,14.0,99,0.00,,,0.12,Wunderground v.1.15,2013-09-29 14:02:00,
2013-09-29 09:08:00,60.9,60.6,30.01,NNE,12,7.0,14.0,99,0.00,,,0.12,Wunderground v.1.15,2013-09-29 14:08:00,
2013-09-29 09:14:00,60.9,60.6,30.01,NNW,347,7.0,14.0,99,0.00,,,0.12,Wunderground v.1.15,2013-09-29 14:14:00,
2013-09-29 09:20:00,61.0,60.7,30.01,NNW,347,7.0,14.0,99,0.00,,,0.12,Wunderground v.1.15,2013-09-29 14:20:00,
2013-09-29 09:26:00,61.1,60.8,30.01,NW,324,7.0,14.0,99,0.00,,,0.12,Wunderground v.1.15,2013-09-29 14:26:00,
2013-09-29 09:32:00,61.1,60.8,30.02,NW,319,6.0,14.0,99,0.00,,,0.12,Wunderground v.1.15,2013-09-29 14:32:00,
2013-09-29 09:38:00,61.1,60.8,30.02,NNE,26,7.0,14.0,99,0.00,,,0.12,Wunderground v.1.15,2013-09-29 14:38:00,
2013-09-29 09:44:00,61.2,60.9,30.02,NW,309,7.0,14.0,99,0.00,,,0.12,Wunderground v.1.15,2013-09-29 14:44:00,
2013-09-29 09:50:00,61.4,61.1,30.02,NNW,345,7.0,14.0,99,0.00,,,0.12,Wunderground v.1.15,2013-09-29 14:50:00,
2013-09-29 09:56:00,61.3,61.0,30.03,NE,36,8.0,14.0,99,0.00,,,0.12,Wunderground v.1.15,2013-09-29 14:56:00,
2013-09-29 10:02:00,61.4,61.1,30.03,North,1,8.0,14.0,99,0.00,,,0.12,Wunderground v.1.15,2013-09-29 15:02:00,
2013-09-29 10:08:00,61.4,61.1,30.03,North,358,7.0,14.0,99,0.00,,,0.12,Wunderground v.1.15,2013-09-29 15:08:00,
2013-09-29 10:14:00,61.2,60.9,30.04,North,357,7.0,14.0,99,0.00,,,0.12,Wunderground v.1.15,2013-09-29 15:14:00,
2013-09-29 10:20:00,61.2,60.9,30.04,ENE,60,8.0,8.0,99,0.00,,,0.12,Wunderground v.1.15,2013-09-29 15:20:00,
2013-09-29 10:26:00,61.3,61.0,30.04,North,11,7.0,14.0,99,0.00,,,0.12,Wunderground v.1.15,2013-09-29 15:26:00,
2013-09-29 10:32:00,61.3,61.0,30.04,NNE,12,8.0,14.0,99,0.00,,,0.12,Wunderground v.1.15,2013-09-29 15:32:00,
2013-09-29 10:38:00,61.3,61.0,30.04,NW,316,8.0,14.0,99,0.00,,,0.12,Wunderground v.1.15,2013-09-29 15:38:00,
2013-09-29 10:44:00,61.4,61.1,30.04,North,349,7.0,14.0,99,0.00,,,0.12,Wunderground v.1.15,2013-09-29 15:44:00,
2013-09-29 10:50:00,61.3,61.0,30.04,North,352,7.0,14.0,99,0.00,,,0.12,Wunderground v.1.15,2013-09-29 15:50:00,
2013-09-29 10:56:00,61.4,61.1,30.04,North,4,6.0,14.0,99,0.00,,,0.12,Wunderground v.1.15,2013-09-29 15:56:00,
2013-09-29 11:02:00,61.5,61.2,30.04,NW,322,6.0,14.0,99,0.00,,,0.12,Wunderground v.1.15,2013-09-29 16:02:00,
2013-09-29 11:08:00,61.6,61.3,30.04,NNW,341,6.0,14.0,99,0.00,,,0.12,Wunderground v.1.15,2013-09-29 16:08:00,
2013-09-29 11:14:00,61.6,61.3,30.04,North,360,6.0,14.0,99,0.00,,,0.12,Wunderground v.1.15,2013-09-29 16:14:00,
2013-09-29 11:20:00,61.6,61.3,30.03,NNW,339,7.0,7.0,99,0.00,,,0.12,Wunderground v.1.15,2013-09-29 16:20:00,
2013-09-29 11:26:00,61.7,61.4,30.03,North,356,7.0,14.0,99,0.00,,,0.12,Wunderground v.1.15,2013-09-29 16:26:00,
2013-09-29 11:32:00,61.8,61.5,30.03,North,349,6.0,14.0,99,0.00,,,0.12,Wunderground v.1.15,2013-09-29 16:32:00,
2013-09-29 11:38:00,61.8,61.5,30.03,NNW,347,5.0,14.0,99,0.00,,,0.12,Wunderground v.1.15,2013-09-29 16:38:00,
2013-09-29 11:44:00,62.0,61.7,30.03,NNW,328,5.0,14.0,99,0.00,,,0.12,Wunderground v.1.15,2013-09-29 16:44:00,
2013-09-29 11:50:00,62.1,61.8,30.03,North,6,6.0,14.0,99,0.00,,,0.12,Wunderground v.1.15,2013-09-29 16:50:00,
2013-09-29 11:56:00,62.2,61.9,30.03,North,3,6.0,14.0,99,0.00,,,0.12,Wunderground v.1.15,2013-09-29 16:56:00,
2013-09-29 12:02:00,62.1,61.8,30.03,NNW,345,6.0,14.0,99,0.00,,,0.12,Wunderground v.1.15,2013-09-29 17:02:00,
2013-09-29 12:08:00,62.3,62.0,30.02,WNW,302,5.0,14.0,99,0.00,,,0.12,Wunderground v.1.15,2013-09-29 17:08:00,
2013-09-29 12:14:00,62.5,62.2,30.02,NNE,15,6.0,14.0,99,0.00,,,0.12,Wunderground v.1.15,2013-09-29 17:14:00,
2013-09-29 12:20:00,62.9,62.6,30.02,WNW,302,5.0,5.0,99,0.00,,,0.12,Wunderground v.1.15,2013-09-29 17:20:00,
2013-09-29 12:26:00,62.9,62.6,30.02,NNW,339,6.0,14.0,99,0.00,,,0.12,Wunderground v.1.15,2013-09-29 17:26:00,
2013-09-29 12:32:00,62.9,62.6,30.02,NNW,334,8.0,14.0,99,0.00,,,0.12,Wunderground v.1.15,2013-09-29 17:32:00,
2013-09-29 12:38:00,63.6,63.3,30.02,NNW,343,7.0,14.0,99,0.00,,,0.12,Wunderground v.1.15,2013-09-29 17:38:00,
2013-09-29 12:44:00,63.6,63.3,30.02,North,5,6.0,14.0,99,0.00,,,0.12,Wunderground v.1.15,2013-09-29 17:44:00,
2013-09-29 12:50:00,63.5,62.9,30.02,North,3,6.0,14.0,98,0.00,,,0.12,Wunderground v.1.15,2013-09-29 17:50:00,
2013-09-29 12:56:00,63.6,63.0,30.01,North,9,7.0,14.0,98,0.00,,,0.12,Wunderground v.1.15,2013-09-29 17:56:00,
2013-09-29 13:02:00,64.0,63.7,30.02,NNW,342,6.0,14.0,99,0.00,,,0.12,Wunderground v.1.15,2013-09-29 18:02:00,
2013-09-29 13:08:00,64.0,63.4,30.01,WNW,301,5.0,14.0,98,0.00,,,0.12,Wunderground v.1.15,2013-09-29 18:08:00,
2013-09-29 13:14:00,64.1,63.5,30.01,NNW,333,5.0,14.0,98,0.00,,,0.12,Wunderground v.1.15,2013-09-29 18:14:00,
2013-09-29 13:20:00,64.4,63.8,30.01,NNE,16,5.0,14.0,98,0.00,,,0.12,Wunderground v.1.15,2013-09-29 18:20:00,
2013-09-29 13:26:00,64.7,64.1,30.00,NNW,345,5.0,14.0,98,0.00,,,0.12,Wunderground v.1.15,2013-09-29 18:26:00,
2013-09-29 13:32:00,65.2,64.6,30.00,NNW,332,5.0,14.0,98,0.00,,,0.12,Wunderground v.1.15,2013-09-29 18:32:00,
2013-09-29 13:38:00,65.4,64.8,30.00,NW,318,5.0,14.0,98,0.00,,,0.12,Wunderground v.1.15,2013-09-29 18:38:00,
2013-09-29 13:44:00,65.4,64.5,30.00,NW,319,5.0,14.0,97,0.00,,,0.12,Wunderground v.1.15,2013-09-29 18:44:00,
2013-09-29 13:50:00,65.6,64.7,29.99,NNE,23,5.0,14.0,97,0.00,,,0.12,Wunderground v.1.15,2013-09-29 18:50:00,
2013-09-29 13:56:00,65.9,65.0,29.99,North,359,6.0,14.0,97,0.00,,,0.12,Wunderground v.1.15,2013-09-29 18:56:00,
2013-09-29 14:02:00,66.3,65.4,29.98,NNW,328,6.0,14.0,97,0.00,,,0.12,Wunderground v.1.15,2013-09-29 19:02:00,
2013-09-29 14:08:00,66.3,65.4,29.98,NNE,33,7.0,14.0,97,0.00,,,0.12,Wunderground v.1.15,2013-09-29 19:08:00,
2013-09-29 14:14:00,66.1,64.9,29.98,NNW,332,6.0,14.0,96,0.00,,,0.12,Wunderground v.1.15,2013-09-29 19:14:00,
2013-09-29 14:20:00,66.2,65.3,29.98,NNW,330,6.0,6.0,97,0.00,,,0.12,Wunderground v.1.15,2013-09-29 19:20:00,
2013-09-29 14:26:00,66.4,65.5,29.97,North,4,5.0,14.0,97,0.00,,,0.12,Wunderground v.1.15,2013-09-29 19:26:00,
2013-09-29 14:32:00,66.5,65.0,29.97,NNW,332,6.0,14.0,95,0.00,,,0.12,Wunderground v.1.15,2013-09-29 19:32:00,
2013-09-29 14:38:00,66.7,64.6,29.97,North,6,7.0,14.0,93,0.00,,,0.12,Wunderground v.1.15,2013-09-29 19:38:00,
2013-09-29 14:44:00,67.1,64.7,29.97,NW,325,5.0,14.0,92,0.00,,,0.12,Wunderground v.1.15,2013-09-29 19:44:00,
2013-09-29 14:50:00,67.3,64.6,29.96,NNW,330,5.0,14.0,91,0.00,,,0.12,Wunderground v.1.15,2013-09-29 19:50:00,
2013-09-29 14:56:00,67.3,64.6,29.96,NNE,13,6.0,14.0,91,0.00,,,0.12,Wunderground v.1.15,2013-09-29 19:56:00,
2013-09-29 15:02:00,67.8,64.4,29.96,NNW,341,5.0,14.0,89,0.00,,,0.12,Wunderground v.1.15,2013-09-29 20:02:00,
2013-09-29 15:08:00,67.9,64.5,29.96,NNE,27,6.0,14.0,89,0.00,,,0.12,Wunderground v.1.15,2013-09-29 20:08:00,
2013-09-29 15:14:00,68.5,64.8,29.95,North,357,6.0,14.0,88,0.00,,,0.12,Wunderground v.1.15,2013-09-29 20:14:00,
2013-09-29 15:20:00,68.8,64.8,29.95,NNE,13,6.0,6.0,87,0.00,,,0.12,Wunderground v.1.15,2013-09-29 20:20:00,
2013-09-29 15:26:00,69.0,64.6,29.95,NNE,20,6.0,14.0,86,0.00,,,0.12,Wunderground v.1.15,2013-09-29 20:26:00,
2013-09-29 15:32:00,69.1,65.1,29.95,NW,319,6.0,8.0,87,0.00,,,0.12,Wunderground v.1.15,2013-09-29 20:32:00,
2013-09-29 15:38:00,69.0,64.6,29.95,North,8,7.0,14.0,86,0.00,,,0.12,Wunderground v.1.15,2013-09-29 20:38:00,
2013-09-29 15:44:00,69.3,65.3,29.94,NNE,32,7.0,14.0,87,0.00,,,0.12,Wunderground v.1.15,2013-09-29 20:44:00,
2013-09-29 15:50:00,69.6,64.9,29.94,NW,325,6.0,14.0,85,0.00,,,0.12,Wunderground v.1.15,2013-09-29 20:50:00,
2013-09-29 15:56:00,70.0,65.6,29.94,NNE,19,7.0,14.0,86,0.00,,,0.12,Wunderground v.1.15,2013-09-29 20:56:00,
2013-09-29 16:02:00,70.3,65.6,29.94,NNW,342,6.0,14.0,85,0.00,,,0.12,Wunderground v.1.15,2013-09-29 21:02:00,
2013-09-29 16:08:00,70.4,65.3,29.94,NNW,340,6.0,14.0,84,0.00,,,0.12,Wunderground v.1.15,2013-09-29 21:08:00,
2013-09-29 16:14:00,70.3,65.2,29.94,NNW,345,6.0,14.0,84,0.00,,,0.12,Wunderground v.1.15,2013-09-29 21:14:00,
2013-09-29 16:20:00,70.3,64.9,29.94,NNW,344,6.0,6.0,83,0.00,,,0.12,Wunderground v.1.15,2013-09-29 21:20:00,
2013-09-29 16:28:00,71.5,65.4,29.93,NNW,338,6.0,14.0,81,0.00,,,0.12,Wunderground v.1.15,2013-09-29 21:28:00,
2013-09-29 16:34:00,71.5,65.4,29.93,North,4,8.0,14.0,81,0.00,,,0.12,Wunderground v.1.15,2013-09-29 21:34:00,
2013-09-29 16:40:00,71.9,65.4,29.93,North,352,7.0,7.0,80,0.00,,,0.12,Wunderground v.1.15,2013-09-29 21:40:00,
2013-09-29 16:46:00,72.5,65.6,29.93,North,352,6.0,14.0,79,0.00,,,0.12,Wunderground v.1.15,2013-09-29 21:46:00,
2013-09-29 16:52:00,73.1,66.2,29.93,NNW,334,5.0,14.0,79,0.00,,,0.12,Wunderground v.1.15,2013-09-29 21:52:00,
2013-09-29 16:58:00,73.1,66.2,29.93,NNE,16,5.0,14.0,79,0.00,,,0.12,Wunderground v.1.15,2013-09-29 21:58:00,
2013-09-29 17:04:00,72.9,65.6,29.93,North,360,6.0,14.0,78,0.00,,,0.12,Wunderground v.1.15,2013-09-29 22:04:00,
2013-09-29 17:10:00,72.8,65.5,29.93,North,355,6.0,14.0,78,0.00,,,0.12,Wunderground v.1.15,2013-09-29 22:10:00,
2013-09-29 17:16:00,72.9,66.0,29.93,NNE,12,6.0,14.0,79,0.00,,,0.12,Wunderground v.1.15,2013-09-29 22:16:00,
2013-09-29 17:22:00,73.0,65.4,29.93,North,6,5.0,14.0,77,0.00,,,0.12,Wunderground v.1.15,2013-09-29 22:22:00,
2013-09-29 17:28:00,73.0,65.4,29.93,North,349,5.0,14.0,77,0.00,,,0.12,Wunderground v.1.15,2013-09-29 22:28:00,
2013-09-29 17:34:00,73.0,65.4,29.93,North,349,5.0,7.0,77,0.00,,,0.12,Wunderground v.1.15,2013-09-29 22:34:00,
2013-09-29 17:40:00,72.4,65.5,29.93,North,351,4.0,4.0,79,0.00,,,0.12,Wunderground v.1.15,2013-09-29 22:40:00,
2013-09-29 17:46:00,72.7,65.4,29.93,NW,320,3.0,14.0,78,0.00,,,0.12,Wunderground v.1.15,2013-09-29 22:46:00,
2013-09-29 17:52:00,72.8,65.5,29.93,NW,309,4.0,14.0,78,0.00,,,0.12,Wunderground v.1.15,2013-09-29 22:52:00,
2013-09-29 17:58:00,72.7,65.4,29.93,North,352,5.0,14.0,78,0.00,,,0.12,Wunderground v.1.15,2013-09-29 22:58:00,
2013-09-29 18:04:00,72.7,65.1,29.93,NNE,30,5.0,14.0,77,0.00,,,0.12,Wunderground v.1.15,2013-09-29 23:04:00,
2013-09-29 18:10:00,72.5,65.2,29.93,NNE,20,5.0,14.0,78,0.00,,,0.12,Wunderground v.1.15,2013-09-29 23:10:00,
2013-09-29 18:16:00,72.3,65.1,29.93,North,6,4.0,14.0,78,0.00,,,0.12,Wunderground v.1.15,2013-09-29 23:16:00,
2013-09-29 18:22:00,72.1,64.9,29.93,NNW,343,3.0,14.0,78,0.00,,,0.12,Wunderground v.1.15,2013-09-29 23:22:00,
2013-09-29 18:28:00,71.9,64.7,29.93,NNW,347,3.0,14.0,78,0.00,,,0.12,Wunderground v.1.15,2013-09-29 23:28:00,
2013-09-29 18:34:00,71.7,64.8,29.93,North,351,4.0,14.0,79,0.00,,,0.12,Wunderground v.1.15,2013-09-29 23:34:00,
2013-09-29 18:40:00,71.6,64.7,29.93,NNE,12,3.0,14.0,79,0.00,,,0.12,Wunderground v.1.15,2013-09-29 23:40:00,
2013-09-29 18:46:00,71.3,64.4,29.93,NNE,20,4.0,14.0,79,0.00,,,0.12,Wunderground v.1.15,2013-09-29 23:46:00,
2013-09-29 18:52:00,71.0,64.2,29.93,NNW,342,4.0,5.0,79,0.00,,,0.12,Wunderground v.1.15,2013-09-29 23:52:00,
2013-09-29 18:58:00,70.7,64.2,29.93,NNE,16,3.0,14.0,80,0.00,,,0.12,Wunderground v.1.15,2013-09-29 23:58:00,
2013-09-29 19:04:00,70.4,64.3,29.93,NE,39,3.0,14.0,81,0.00,,,0.12,Wunderground v.1.15,2013-09-30 00:04:00,
2013-09-29 19:10:00,70.1,64.3,29.94,NNE,14,3.0,14.0,82,0.00,,,0.12,Wunderground v.1.15,2013-09-30 00:10:00,
2013-09-29 19:16:00,69.7,64.0,29.94,North,358,2.0,14.0,82,0.00,,,0.12,Wunderground v.1.15,2013-09-30 00:16:00,
2013-09-29 19:22:00,69.2,63.8,29.93,North,11,2.0,14.0,83,0.00,,,0.12,Wunderground v.1.15,2013-09-30 00:22:00,
2013-09-29 19:28:00,68.5,63.8,29.93,North,11,1.0,14.0,85,0.00,,,0.12,Wunderground v.1.15,2013-09-30 00:28:00,
2013-09-29 19:34:00,68.0,63.7,29.93,North,11,0.0,14.0,86,0.00,,,0.12,Wunderground v.1.15,2013-09-30 00:34:00,
2013-09-29 19:40:00,67.6,63.6,29.94,North,11,0.0,14.0,87,0.00,,,0.12,Wunderground v.1.15,2013-09-30 00:40:00,
2013-09-29 19:46:00,67.1,63.1,29.94,North,11,0.0,14.0,87,0.00,,,0.12,Wunderground v.1.15,2013-09-30 00:46:00,
2013-09-29 19:52:00,66.9,63.2,29.94,North,11,0.0,14.0,88,0.00,,,0.12,Wunderground v.1.15,2013-09-30 00:52:00,
2013-09-29 19:58:00,66.4,62.7,29.94,North,11,0.0,14.0,88,0.00,,,0.12,Wunderground v.1.15,2013-09-30 00:58:00,
2013-09-29 20:04:00,65.7,62.4,29.94,North,11,0.0,14.0,89,0.00,,,0.12,Wunderground v.1.15,2013-09-30 01:04:00,
2013-09-29 20:10:00,65.0,62.0,29.94,North,11,0.0,14.0,90,0.00,,,0.12,Wunderground v.1.15,2013-09-30 01:10:00,
2013-09-29 20:16:00,65.2,62.2,29.94,North,11,0.0,14.0,90,0.00,,,0.12,Wunderground v.1.15,2013-09-30 01:16:00,
2013-09-29 20:22:00,65.2,62.2,29.94,North,11,0.0,14.0,90,0.00,,,0.12,Wunderground v.1.15,2013-09-30 01:22:00,
2013-09-29 20:28:00,65.0,62.0,29.94,North,11,0.0,14.0,90,0.00,,,0.12,Wunderground v.1.15,2013-09-30 01:28:00,
2013-09-29 20:34:00,64.7,62.0,29.94,North,11,0.0,14.0,91,0.00,,,0.12,Wunderground v.1.15,2013-09-30 01:34:00,
2013-09-29 20:40:00,64.2,61.5,29.94,North,11,0.0,14.0,91,0.00,,,0.12,Wunderground v.1.15,2013-09-30 01:40:00,
2013-09-29 20:46:00,63.6,60.9,29.94,North,11,0.0,14.0,91,0.00,,,0.12,Wunderground v.1.15,2013-09-30 01:46:00,
2013-09-29 20:52:00,63.2,60.5,29.94,North,11,0.0,14.0,91,0.00,,,0.12,Wunderground v.1.15,2013-09-30 01:52:00,
2013-09-29 20:58:00,63.5,60.5,29.94,North,11,0.0,14.0,90,0.00,,,0.12,Wunderground v.1.15,2013-09-30 01:58:00,
2013-09-29 21:04:00,63.9,60.3,29.95,North,11,0.0,14.0,88,0.00,,,0.12,Wunderground v.1.15,2013-09-30 02:04:00,
2013-09-29 21:12:00,63.7,59.8,29.95,North,11,0.0,14.0,87,0.00,,,0.12,Wunderground v.1.15,2013-09-30 02:12:00,
2013-09-29 21:18:00,63.0,59.1,29.95,North,11,0.0,14.0,87,0.00,,,0.12,Wunderground v.1.15,2013-09-30 02:18:00,
2013-09-29 21:24:00,62.4,58.8,29.95,North,11,0.0,14.0,88,0.00,,,0.12,Wunderground v.1.15,2013-09-30 02:24:00,
2013-09-29 21:30:00,62.6,58.7,29.95,North,11,0.0,14.0,87,0.00,,,0.12,Wunderground v.1.15,2013-09-30 02:30:00,
2013-09-29 21:36:00,62.3,58.4,29.96,North,11,0.0,14.0,87,0.00,,,0.12,Wunderground v.1.15,2013-09-30 02:36:00,
2013-09-29 21:42:00,62.6,59.0,29.96,North,11,0.0,14.0,88,0.00,,,0.12,Wunderground v.1.15,2013-09-30 02:42:00,
2013-09-29 21:48:00,64.3,59.4,29.96,North,11,0.0,14.0,84,0.00,,,0.12,Wunderground v.1.15,2013-09-30 02:48:00,
2013-09-29 21:54:00,65.2,59.6,29.96,North,11,0.0,14.0,82,0.00,,,0.12,Wunderground v.1.15,2013-09-30 02:54:00,
2013-09-29 22:00:00,65.8,59.8,29.96,North,11,0.0,14.0,81,0.00,,,0.12,Wunderground v.1.15,2013-09-30 03:00:00,
2013-09-29 22:06:00,66.1,60.1,29.96,North,11,0.0,14.0,81,0.00,,,0.12,Wunderground v.1.15,2013-09-30 03:06:00,
2013-09-29 22:12:00,66.2,59.8,29.96,North,11,0.0,14.0,80,0.00,,,0.12,Wunderground v.1.15,2013-09-30 03:12:00,
2013-09-29 22:18:00,66.3,59.9,29.96,North,11,0.0,14.0,80,0.00,,,0.12,Wunderground v.1.15,2013-09-30 03:18:00,
2013-09-29 22:24:00,66.6,59.9,29.96,North,11,0.0,14.0,79,0.00,,,0.12,Wunderground v.1.15,2013-09-30 03:24:00,
2013-09-29 22:30:00,66.8,60.1,29.96,North,11,0.0,14.0,79,0.00,,,0.12,Wunderground v.1.15,2013-09-30 03:30:00,
2013-09-29 22:36:00,66.8,59.7,29.96,North,11,0.0,14.0,78,0.00,,,0.12,Wunderground v.1.15,2013-09-30 03:36:00,
2013-09-29 22:42:00,66.4,59.3,29.97,North,11,0.0,14.0,78,0.00,,,0.12,Wunderground v.1.15,2013-09-30 03:42:00,
2013-09-29 22:48:00,66.4,59.0,29.97,North,11,0.0,14.0,77,0.00,,,0.12,Wunderground v.1.15,2013-09-30 03:48:00,
2013-09-29 22:54:00,66.6,59.9,29.97,North,11,0.0,14.0,79,0.00,,,0.12,Wunderground v.1.15,2013-09-30 03:54:00,
2013-09-29 23:00:00,66.9,60.2,29.97,North,11,0.0,14.0,79,0.00,,,0.12,Wunderground v.1.15,2013-09-30 04:00:00,
2013-09-29 23:02:00,66.9,60.2,29.97,North,11,0.0,14.0,79,0.00,,,0.12,Wunderground v.1.15,2013-09-30 04:02:00,
2013-09-29 23:04:00,66.8,60.4,29.97,North,11,0.0,14.0,80,0.00,,,0.12,Wunderground v.1.15,2013-09-30 04:04:00,
2013-09-29 23:06:00,66.9,60.5,29.97,North,11,0.0,14.0,80,0.00,,,0.12,Wunderground v.1.15,2013-09-30 04:06:00,
2013-09-29 23:08:00,67.0,60.6,29.97,North,11,0.0,14.0,80,0.00,,,0.12,Wunderground v.1.15,2013-09-30 04:08:00,
2013-09-29 23:14:00,67.3,60.6,29.97,North,11,0.0,14.0,79,0.00,,,0.12,Wunderground v.1.15,2013-09-30 04:14:00,
2013-09-29 23:20:00,66.9,60.5,29.97,North,11,0.0,14.0,80,0.00,,,0.12,Wunderground v.1.15,2013-09-30 04:20:00,
2013-09-29 23:26:00,66.0,60.0,29.97,North,11,0.0,14.0,81,0.00,,,0.12,Wunderground v.1.15,2013-09-30 04:26:00,
2013-09-29 23:32:00,65.1,59.8,29.97,North,11,0.0,14.0,83,0.00,,,0.12,Wunderground v.1.15,2013-09-30 04:32:00,
2013-09-29 23:36:00,64.7,59.4,29.97,North,11,0.0,14.0,83,0.00,,,0.12,Wunderground v.1.15,2013-09-30 04:36:00,
2013-09-29 23:42:00,64.4,59.5,29.97,North,11,0.0,14.0,84,0.00,,,0.12,Wunderground v.1.15,2013-09-30 04:42:00,
2013-09-29 23:48:00,64.7,59.8,29.97,North,11,0.0,14.0,84,0.00,,,0.12,Wunderground v.1.15,2013-09-30 04:48:00,
2013-09-29 23:54:00,64.4,59.5,29.97,North,11,0.0,14.0,84,0.00,,,0.12,Wunderground v.1.15,2013-09-30 04:54:00,